Voltar ao catálogo

SL-14 DEB

AtivoPO
NORAD 26021·DEBRIS·🇷🇺 Russia

Lançado Sep 28, 1991 de Plesetsk Cosmodrome

Loading…

Próximas Passagens (próximas 24 horas)

TLE

AtualizadoSource: Space-Track

Época: Sep 13, 2026, 17:41 UTC

1 26021U 91068AG  26256.73730951  .00000676  00000-0  21281-2 0  9996
2 26021  81.7783 339.1261 0221653 239.4626 248.0937 12.95071894638010

Acompanhe SL-14 DEB em tempo real com AllMySat

Download on the App Store